Dewpoint
54 55 55 55 55 56 56 56 54 50 50 51 52 54 57 59 59 60 59 55 56 58 60 60 60 61 61 63 63 63 63 63 62 63 64 64 63 65
53 55 55 55 55 56 56 56 55 54 51 52 52 53 54 55 56 58 59 55 55 56 57 57 58 59 60 60 61 61 62 61 62 62 64 64 64 65
50 50 53 55 55 55 55 55 55 55 53 53 55 54 54 55 55 57 57 58 57 55 56 56 57 57 58 59 59 60 61 61 61 62 62 62 62 63
46 46 47 48 49 54 55 55 55 55 55 53 54 54 54 54 55 55 57 57 58 57 56 57 57 57 57 57 57 57 57 57 58 58 59 60 61 61
45 44 44 45 46 47 49 53 55 55 55 55 54 54 54 54 55 56 56 56 57 55 56 56 56 56 56 56 56 56 55 55 55 55 56 57 58 59
44 44 45 44 46 48 48 49 52 54 54 54 54 54 54 53 54 55 54 56 57 56 55 55 56 55 55 56 55 54 53 54 55 55 55 54 55 56
43 44 45 45 45 46 47 49 50 54 53 53 53 53 53 51 51 51 53 53 55 56 55 54 55 55 55 54 52 51 52 53 53 54 55 55 54 55
43 43 43 44 45 47 47 49 50 52 53 53 52 52 52 50 52 52 51 50 50 53 54 52 51 48 48 50 50 50 51 51 52 53 53 53 54 54
43 43 43 43 44 44 45 47 47 46 48 52 53 52 49 50 51 50 51 50 51 50 50 48 47 44 46 47 49 49 49 50 50 51 51 51 52 53
42 42 42 42 43 44 44 45 42 41 42 44 45 44 44 45 47 50 50 49 45 45 47 44 44 42 43 44 48 48 49 49 49 50 50 50 50 51
42 41 41 42 43 43 42 41 40 39 41 41 41 41 40 41 42 46 46 43 42 42 43 42 41 39 39 39 43 48 48 49 49 50 49 48 48 48
38 39 40 41 43 42 40 40 39 38 38 37 37 37 37 37 39 39 43 42 36 36 40 38 37 37 34 37 38 41 43 46 47 47 47 47 46 46
37 36 39 41 41 41 40 38 38 38 37 36 35 35 35 35 35 36 37 38 35 34 38 37 35 34 35 35 35 36 38 39 40 41 44 45 45 44
35 35 37 38 38 39 39 39 38 36 35 34 33 33 33 32 33 34 34 34 35 34 37 38 34 36 35 34 33 34 35 35 36 36 38 40 40 41
35 36 37 36 35 35 36 36 34 33 32 31 31 31 31 32 33 33 33 33 32 32 33 34 34 34 34 34 33 33 33 32 33 34 34 35 36 36
37 35 34 32 32 32 30 30 29 29 28 26 28 27 28 29 28 30 30 28 26 26 29 32 32 32 31 30 30 31 31 30 30 30 31 32 33 34
33 30 28 27 27 27 27 27 27 27 26 25 24 24 25 24 24 20 19 17 20 17 21 24 28 30 28 25 27 28 25 24 25 28 27 25 27 29
31 28 26 26 25 26 26 27 27 27 26 25 24 23 21 19 18 17 17 15 17 15 15 16 16 18 22 30 31 27 25 21 21 24 25 19 22 26
28 28 26 25 25 26 26 25 25 25 23 22 19 15 16 18 16 13 13 15 17 14 14 13 9 5 6 11 27 28 19 19 20 21 24 23 22 25
28 26 26 26 26 26 26 25 24 24 21 20 19 16 13 10 9 9 11 8 10 8 12 14 13 3 9 11 19 23 25 17 18 17 17 22 24 28
29 27 27 27 27 26 26 25 22 19 12 8 8 9 9 10 6 7 13 21 16 5 7 9 13 22 9 17 12 17 21 24 23 18 17 19 21 23
29 28 28 28 27 26 25 23 21 19 11 9 7 7 5 10 8 9 13 10 10 8 6 6 10 7 5 8 7 9 17 21 22 24 24 23 17 15
30 30 29 28 27 25 23 21 20 16 13 10 8 6 7 8 13 14 12 11 8 7 9 10 11 11 11 10 7 7 12 16 20 20 22 23 24 26
Lifted_Index
7 6 6 6 5 5 5 5 5 5 5 6 6 5 5 5 4 3 3 2 1 0 -0 -1 -1 -1 -1 -2 -2 -2 -2 -1 -0 0 -0 -0 -0 -0
7 6 6 5 5 5 5 5 5 5 5 6 6 5 5 5 5 4 3 2 2 1 0 -0 -1 -1 -1 -1 -2 -2 -2 -1 -0 0 -0 -0 -0 -1
7 7 7 6 6 5 5 5 5 5 5 5 5 5 5 5 5 4 3 3 2 2 1 0 -0 -1 -1 -1 -1 -2 -2 -2 -1 -0 0 0 0 0
8 8 8 8 7 7 6 5 5 5 5 5 5 5 6 5 5 4 4 3 2 2 1 1 0 0 -0 -0 -1 -1 -1 -1 -1 -0 0 0 1 1
9 9 10 10 9 8 7 6 5 4 4 5 5 5 5 5 5 4 4 3 3 2 1 1 1 1 0 -0 -0 -0 -1 -1 -1 -0 -0 0 0 1
9 10 10 10 9 8 8 7 6 4 3 4 4 5 5 5 5 4 4 4 3 2 1 1 1 1 1 0 0 -0 -0 -0 -1 -1 -0 -0 -0 -0
10 10 10 10 9 8 7 7 6 4 3 4 4 4 5 5 5 5 5 4 3 2 1 1 1 1 1 1 1 0 0 -0 -1 -1 -1 -1 -1 -1
10 10 10 9 8 7 7 6 6 5 4 4 4 4 4 5 5 5 5 4 3 2 1 1 2 2 2 2 1 1 1 0 -0 -0 -1 -1 -1 -1
11 11 10 9 7 6 6 6 6 5 5 5 4 5 5 5 5 5 4 4 3 2 2 2 2 2 2 2 2 2 1 1 1 0 0 0 -0 -0
11 11 10 8 7 6 6 6 6 6 5 5 5 5 5 5 5 5 4 4 3 3 2 2 2 2 3 3 3 3 3 3 2 2 2 1 1 1
12 12 11 9 8 7 7 6 6 6 6 5 5 5 5 5 5 5 5 4 4 3 3 2 2 2 3 3 3 4 4 4 4 4 3 3 3 3
12 12 12 11 9 8 7 7 7 7 7 6 6 6 6 6 5 5 5 4 4 3 3 3 2 3 3 3 4 5 6 6 6 6 6 5 5 5
12 12 12 12 11 10 8 8 7 7 7 7 7 7 7 6 6 6 6 5 4 4 4 4 3 3 3 4 5 7 8 8 8 8 8 8 7 7
11 12 13 13 13 12 10 9 9 8 8 8 7 7 7 7 7 7 6 6 6 5 6 5 5 5 4 5 6 7 8 8 9 9 9 9 9 9
11 12 13 14 13 13 12 11 10 10 10 9 8 8 8 8 8 8 7 7 7 7 7 7 7 6 6 6 6 7 8 9 9 10 10 10 11 12
11 12 13 13 14 13 13 13 13 13 12 12 11 11 11 11 11 10 10 10 10 10 10 10 9 9 9 9 9 9 9 10 12 13 13 14 14 15
10 11 11 12 13 13 14 14 15 15 15 15 15 15 15 15 15 15 14 14 14 14 14 14 14 13 13 13 13 13 14 14 15 16 16 16 16 17
9 9 10 12 13 13 14 15 16 16 17 17 17 17 17 17 17 17 17 16 16 16 16 16 16 16 15 16 16 17 17 17 18 18 18 17 17 18
8 8 10 11 13 14 14 15 16 17 17 17 17 18 18 17 17 17 16 16 16 16 16 17 17 16 16 16 17 19 19 19 19 19 19 18 18 19
7 8 10 11 13 14 15 16 16 17 17 17 17 18 18 18 17 17 17 16 16 16 17 17 18 18 18 17 18 19 21 21 21 20 20 20 20 21
7 8 10 12 13 14 15 16 17 17 17 18 18 18 18 18 18 17 17 17 17 17 17 18 20 20 20 20 19 19 21 23 23 22 21 21 20 20
7 8 10 12 13 14 15 16 16 17 18 18 18 19 19 19 18 18 18 18 18 18 19 19 21 21 21 20 19 20 21 22 23 23 23 22 21 20
7 8 10 12 13 14 15 16 16 17 18 18 19 19 19 19 19 19 19 19 19 19 20 20 21 21 20 20 20 20 21 21 22 22 23 24 23 22